User: anonymous   Login
Location: Ashtead
(51.3000°N, 0.3000°W)
Time: 11:08:29
(UTC+00:00)
Language:

CZ-2C R/B - Orbit

View from above orbital plane
View from above orbital plane
View from above satellite
View from above satellite

Ground track
Ground track

The orbit data is extracted from the following two-line orbital elements,

1 31114U 07010B   24056.91911301  .00000218  00000-0  12008-3 0  9995
2 31114  98.3113 199.6621 0058437 295.7663  63.7491 14.19712817874309
Epoch (UTC): 25 February 2024 22:03:31
Eccentricity: 0.0058437
inclination: 98.3113°
perigee height: 784 km
apogee height: 868 km
right ascension of ascending node: 199.6621°
argument of perigee: 295.7663°
revolutions per day: 14.19712817
mean anomaly at epoch: 63.7491°
orbit number at epoch: 87430

The dashed part of the orbit path shows where the satellite is in the earth's shadow,  

DLR